Погода в Дамане

Индия     20°25′22″N   72°51′03″E
темп.,
°C
ветер,
м/с
пор.,
м/с
влажн.,
%
обл.,
%
осадки,
мм/ч
давл.,
гПа
погр.,
м
16 мая, вс
вс1623:30+32ссв5858100 0.0 999100
02:30+32всв3355100 0.0 99927
05:30+31ююв346494 0.7 100073
08:30+31ююв3366100 0.9 100249
11:30+31зюз6776100 0.9 1002167
14:30+31з4474100 0.0 100091
17:30+31с4470100 0.0 99947
20:30+32всв6760100 0.0 100095
17 мая, пн
пн1723:30+32всв6961100 0.0 1000136
02:30+32в91360100 0.0 998378
05:30+31в101463100 0.0 998799
08:30+30вюв5867100 2.4 1001768
11:30+29ююв111476100 5.1 10011080
14:30+29юв121875100 7.4 9991350
17:30+29ююв142073100 7.8 9991521
20:30+29ююв152174100 0.4 10011622
18 мая, вт
вт1823:30+29ююв152176100 0.6 10011622
02:30+29ю152278100 0.6 10001564
05:30+29ю162278100 1.7 10001596
08:30+29ю162178100 3.0 10021578
11:30+30ю162181100 4.9 10031513
14:30+30ююз161979100 1.2 10011357
17:30+30ююз151783100 2.3 10011287
20:30+29ююз141885100 1.1 10021269
19 мая, ср
ср1923:30+29ююз151880100 3.9 10031279
02:30+29юз141780100 3.7 10011248
05:30+29юз141679100 6.1 10021275
08:30+29юз13157899 2.8 10051129
11:30+30юз11127515 6.3 1005930
14:30+30юз10117585 2.1 1004844
17:30+30юз89785 3.4 1004742
20:30+30юз888058 1.4 1005736
20 мая, чт
чт2023:30+30юз887986 1.8 1005875
02:30+30юз88765 0.0 10051040
05:30+30юз88755 0.0 10051031
08:30+30юз777621 0.0 10071068
11:30+30зюз777511 0.1 1007975
14:30+30зюз66755 0.0 1006896
17:30+30зюз55755 0.0 1005732
20:30+30юз66772 0.0 1006572